Powrót do katalogu

COSMOS 2251 DEB

AktywnyLEO
NORAD 35646·DEBRIS·🇷🇺 Russia

Wystrzelony Jun 16, 1993 z Plesetsk Cosmodrome

Loading…

Następne Przeloty (najbliższe 24 godziny)

TLE

ŚwieżeSource: Space-Track

Epoka: Sep 14, 2026, 14:08 UTC

1 35646U 93036ANM 26257.58917078  .00000155  00000-0  16983-3 0  9993
2 35646  73.8716 338.1063 0457856  40.6721  22.9594 13.41211243855569

Śledź COSMOS 2251 DEB w czasie rzeczywistym z AllMySat

Download on the App Store